User: anonymous   Login
Location: Cronhütte
(48.9135°N, 9.6869°E)
Time: 22:00:38
(UTC+00:00)
Language:

SL-16 R/B - Orbit

View from above orbital plane
View from above orbital plane
View from above satellite
View from above satellite

Ground track
Ground track

The orbit data is extracted from the following two-line orbital elements,

1 27006U 01056F   24205.38281045  .00000006  00000-0  57720-4 0  9992
2 27006  99.6906 352.8298 0015318  75.7843 345.7024 13.71034748131755
Epoch (UTC): 23 July 2024 09:11:14
Eccentricity: 0.0015318
inclination: 99.6906°
perigee height: 984 km
apogee height: 1007 km
right ascension of ascending node: 352.8298°
argument of perigee: 75.7843°
revolutions per day: 13.71034748
mean anomaly at epoch: 345.7024°
orbit number at epoch: 13175

The dashed part of the orbit path shows where the satellite is in the earth's shadow,  

DLR